User: anonymous   Login
Location: Unspecified
(0.0000°N, 0.0000°E)
Time: 09:30:58
(UTC+00:00)
Language:

IRS-P3 - Orbit

View from above orbital plane
View from above orbital plane
View from above satellite
View from above satellite

Ground track
Ground track

The orbit data is extracted from the following two-line orbital elements,

1 23827U 96017A   18018.45981039  .00000010  00000-0  24303-4 0  9999
2 23827  98.7475 319.2970 0004172 123.7517 236.4058 14.22536463133017
Epoch (UTC): 18 January 2018 11:02:07
Eccentricity: 0.0004172
inclination: 98.7475°
perigee height: 814 km
apogee height: 820 km
right ascension of ascending node: 319.2970°
argument of perigee: 123.7517°
revolutions per day: 14.22536463
mean anomaly at epoch: 236.4058°
orbit number at epoch: 13301

The dashed part of the orbit path shows where the satellite is in the earth's shadow,  

DLR